Weather Roundup
Issued by NWS

Home | Current Version | Previous Version | Graphics & Text | Print | Product List | Glossary On
Versions: 1 2 3 4 5 6 7 8 9 10 11 12 13 14 15 16 17 18 19 20 21 22 23 24 25 26 27 28 29 30 31 32 33 34 35 36 37 38 39 40 41 42 43 44 45 46 47 48 49 50
607
NZUS93 KARX 091359
HRRWXR

CURRENT HOURLY OBSERVATIONS ACROSS
MUCH OF THE UPPER MISSISSIPPI VALLEY
NATIONAL WEATHER SERVICE LA CROSSE WI
800 AM CST TUE FEB 09 2016


...SOUTHEAST MINNESOTA...


CITY           SKY/WX    TMP DP  RH WIND       PRES   REMARKS
ROCHESTER      CLOUDY     5  -1  76 N15       29.99R WCI -13
ROCHESTER/MAYO CLOUDY     6   0  76 NW14G22   30.01R WCI -11
WINONA         MOCLDY    10   1  67 N13G23    30.04R WCI  -5
AUSTIN         PTCLDY     5   0  78 N16G24    30.01S WCI -14
ALBERT LEA     CLEAR      7   0  72 NW12G26   30.03S WCI  -9
DODGE CENTER   PTCLDY     3  -2  78 NW17      30.00R WCI -17
PRESTON        CLOUDY     4  -2  75 N14G24    29.98R WCI -14
OWATONNA       CLEAR      3  -2  78 NW16      30.06R WCI -16
FARIBAULT      CLEAR      3  -2  78 NW12      30.08R WCI -13
$$

...ELSEWHERE IN MINNESOTA...


CITY           SKY/WX    TMP DP  RH WIND       PRES   REMARKS
MINNEAPOLIS    PTCLDY     5  -2  72 NW18      30.10R WCI -15
INTNL FALLS    CLOUDY    -7 -11  83 NW8       30.14R WCI -23
DULUTH         PTCLDY    -2  -8  76 NW9       30.00S WCI -18
RED WING       CLOUDY     7  -2  66 NW8       30.06R WCI  -6
REDWOOD FALLS  CLEAR      5  -1  76 NW15G22   30.18R WCI -13
MANKATO        CLEAR      7   0  72 NW17      30.10R WCI -12
WORTHINGTON    CLEAR      3  -4  72 N21       30.16R WCI -18
FAIRMONT       CLEAR      5  -2  72 NW20G25   30.10R WCI -15
$$

...SOUTHWEST WISCONSIN...


CITY           SKY/WX    TMP DP  RH WIND       PRES   REMARKS
LA CROSSE      PTCLDY     7  -2  66 NW14      30.00R WCI -10
PRAIRIE DU CHI MOCLDY    10   0  65 NW13      29.98R WCI  -6
BOSCOBEL       LGT SNOW  10   2  69 NW10      29.96R WCI  -4
LONE ROCK      NOT AVBL
PLATTEVILLE    CLOUDY     9   3  77 NW15G21   29.90R WCI  -8
FORT MC COY    LGT SNOW   8   2  78 NW13      29.95S WCI  -8
VIROQUA        CLOUDY     6   1  78 NW15      29.90S WCI -12
WIS DELLS      CLOUDY     8   2  77 NW8G17    29.87R HAZE    WCI  -4
$$

...ELSEWHERE IN WISCONSIN...


CITY           SKY/WX    TMP DP  RH WIND       PRES   REMARKS
MILWAUKEE      PTCLDY    14   6  70 NW12      29.80R WCI   0
MADISON        FLURRIES   9   2  73 NW10G24   29.86R WCI  -5
GREEN BAY      LGT SNOW  13   8  81 NW13      29.81R WCI  -2
EAU CLAIRE     NOT AVBL
BLACK RVR FLS  LGT SNOW   7  -1  69 NW8       29.96R WCI  -6
MEDFORD        LGT SNOW   5   1  81 NW15G21   29.83S WCI -13
WAUSAU         LGT SNOW  11   4  73 NW10G18   29.81R WCI  -3
WIS RAPIDS     LGT SNOW   7   0  73 NW15G25   29.89R WCI -10
MARSHFIELD     LGT SNOW   6  -2  69 NW20      29.85R WCI -14
RICE LAKE      CLOUDY     2  -4  75 NW8G16    30.02R WCI -11
$$

...NORTHEAST IOWA...


CITY           SKY/WX    TMP DP  RH WIND       PRES   REMARKS
WATERLOO       MOCLDY     8   3  80 NW20      30.01R WCI -11
DUBUQUE        MOCLDY     9   2  73 N15       29.91R WCI  -8
DECORAH        MOCLDY     7   0  72 NW15G21   29.95R WCI -11
MASON CITY     CLOUDY     5   0  79 NW25      30.05R WCI -18
CHARLES CITY   CLOUDY     7   3  85 NW18G24   30.01R WCI -12
OELWEIN        PTCLDY     9   3  78 N17       29.98R WCI -10
$$

...ELSEWHERE IN IOWA...


CITY           SKY/WX    TMP DP  RH WIND       PRES   REMARKS
DES MOINES     MOCLDY    10   2  69 N16       30.10R WCI  -7
IOWA CITY      MIX PCPN  13   3  64 NW20G35   30.00R WCI  -5
FORT DODGE     CLEAR      7  -2  66 NW14G21   30.11R WCI -10
MARSHALLTOWN   CLOUDY     8   3  80 NW21G28   30.04R WCI -12
CEDAR RAPIDS   LGT SNOW  11   7  84 NW16      29.97R FOG     WCI  -6
$$

...NORTHERN ILLINOIS...


CITY           SKY/WX    TMP DP  RH WIND       PRES   REMARKS
CHICAGO-OHARE  LGT SNOW  15  10  80 NW16      29.81R WCI  -1
CHICAGO-MIDWAY FLURRIES  18  11  74 NW14      29.81R WCI   4
MOLINE         PTCLDY    13   3  64 NW15G25   29.94R WCI  -3
ROCKFORD       LGT SNOW  13   7  77 N13       29.88R BLWGSNOWWCI  -2
PEORIA         LGT SNOW  14   8  77 NW10G17   29.91R WCI   1
$$

NOTE: "FAIR" INDICATES FEW OR NO CLOUDS BELOW 12,000 FEET WITH NO
SIGNIFICANT WEATHER AND/OR OBSTRUCTIONS TO VISIBILITY. WIND
SPEEDS ARE IN MILES-PER-HOUR.




USA.gov is the U.S. government's official web portal to all federal, state and local government web resources and services.